Content
SEND FEEDBACK

Daily
Averages
Monthly
Summary
Turkey

BIRECIK, TURKEY


Home > Middle East > Turkey
Elevation: 1138 feet     Latitude: 37 00N     Longitude: 038 00E

WEATHER
 
SELECT A DAY
Number of Records: 207,047;   Date Range: 7/1/96 - 7/29/14
 
SHARE

PRINT THIS DATA

[ ← Previous Day ]
WEATHER ALMANAC - FEBRUARY 25, 2013
[ Next Day → ]
[ °C ]   °F
Weather ElementAverageHighLow
Temperature50.5 °F62.6 °F (11:50 am)39.2 °F (12:50 am)
Dewpoint39.3 °F44.6 °F (8:20 am)33.8 °F (10:20 am)
Humidity68.6 %93 % (12:50 am)30 % (2:00 pm)
Barometer30.28 in30.34 in (8:00 am)30.24 in (3:20 am)
Wind Speed2.1 mph6.9 mph (9:20 am)
Weather ElementAverage
Visibility6 mi
Wind DirectionESE (104.4 °)

Weather ElementTotal
Precipitation---
Heating Degree Days14.1 (Base 65)
Growing Degree Days0.9 (Base 50)
Averaged from 51 records on February 25, 2013
WEATHER CONDITIONS BREAKOUT
WIND DIRECTION BREAKOUT
WEATHER BY HOUR - FEBRUARY 25, 2013
[ °C ]   °F
Local TimeTemperatureDewpointHumidityBarometerVisibilityWind DirectionWind SpeedGust SpeedPrecipitationEventsConditions
12:50 AM39.2 °F37.4 °F93 %30.27 inCalmClear
1:20 AM39.2 °F37.4 °F93 %30.27 inCalmClear
1:50 AM39.2 °F37.4 °F93 %30.27 inCalmClear
2:00 AM40.0 °F38.0 °F89 %30.28 in6.0 miCalm
2:20 AM39.2 °F37.4 °F93 %30.27 inCalmClear
2:50 AM41.0 °F39.2 °F93 %30.27 inCalmClear
3:20 AM41.0 °F39.2 °F93 %30.24 inVariable2.3 mphClear
3:50 AM41.0 °F39.2 °F93 %30.27 inVariable2.3 mphClear
4:20 AM41.0 °F37.4 °F87 %30.27 inCalmClear
4:50 AM39.2 °F37.4 °F93 %30.27 inVariable1.2 mphClear
5:20 AM41.0 °F37.4 °F87 %30.27 inVariable1.2 mphClear
5:50 AM41.0 °F37.4 °F87 %30.27 inNorth (360°)3.5 mphClear
6:20 AM39.2 °F35.6 °F87 %30.27 inCalmClear
6:50 AM39.2 °F35.6 °F87 %30.30 inVariable1.2 mphClear
7:20 AM41.0 °F39.2 °F93 %30.30 inCalmClear
7:50 AM46.4 °F42.8 °F87 %30.30 inCalmClear
8:00 AM46.0 °F42.0 °F80 %30.34 in6.0 miCalm
8:20 AM51.8 °F44.6 °F76 %30.30 inCalmClear
8:50 AM55.4 °F44.6 °F67 %30.30 inCalmClear
9:20 AM57.2 °F39.2 °F51 %30.30 inNorth (350°)6.9 mphClear
9:50 AM59.0 °F37.4 °F45 %30.30 inNorth (360°)5.8 mphClear
10:20 AM60.8 °F33.8 °F36 %30.30 inSW (230°)3.5 mphClear
10:50 AM60.8 °F33.8 °F36 %30.30 inSE (130°)4.6 mphClear
11:20 AM60.8 °F33.8 °F36 %30.30 inSouth (190°)3.5 mphClear
11:50 AM62.6 °F33.8 °F34 %30.30 inCalmClear
12:20 PM62.6 °F37.4 °F39 %30.30 inESE (120°)4.6 mphClear
12:50 PM60.8 °F37.4 °F42 %30.27 inEast (90°)4.6 mphClear
1:20 PM62.6 °F39.2 °F42 %30.27 inVariable3.5 mphClear
1:50 PM62.6 °F39.2 °F42 %30.27 inSouth (170°)4.6 mphClear
2:00 PM62.0 °F39.0 °F30 %30.27 in6.0 miSouth (170°)4.6 mph
2:20 PM62.6 °F39.2 °F42 %30.27 inSSE (150°)4.6 mphClear
2:50 PM62.6 °F39.2 °F42 %30.27 inESE (120°)3.5 mphClear
3:20 PM60.8 °F39.2 °F45 %30.27 inSSE (150°)5.8 mphClear
3:50 PM62.6 °F39.2 °F42 %30.27 inSSW (210°)3.5 mphClear
4:20 PM60.8 °F41.0 °F48 %30.24 inSSE (160°)4.6 mphClear
4:50 PM59.0 °F42.8 °F55 %30.24 inSE (140°)5.8 mphClear
5:20 PM57.2 °F41.0 °F55 %30.27 inSouth (190°)4.6 mphClear
5:50 PM55.4 °F41.0 °F58 %30.27 inSSW (210°)3.5 mphClear
6:20 PM51.8 °F42.8 °F71 %30.27 inCalmClear
6:50 PM53.6 °F41.0 °F62 %30.27 inVariable1.2 mphClear
7:20 PM51.8 °F41.0 °F67 %30.27 inVariable1.2 mphClear
7:50 PM51.8 °F42.8 °F71 %30.27 inCalmClear
8:00 PM51.0 °F42.0 °F63 %30.29 in6.0 miCalm
8:20 PM48.2 °F42.8 °F82 %30.27 inCalmClear
8:50 PM48.2 °F41.0 °F76 %30.27 inWNW (300°)2.3 mphClear
9:20 PM46.4 °F41.0 °F81 %30.27 inWNW (290°)1.2 mphClear
9:50 PM44.6 °F41.0 °F87 %30.27 inWNW (300°)2.3 mphClear
10:20 PM44.6 °F41.0 °F87 %30.27 inCalmClear
10:50 PM42.8 °F39.2 °F87 %30.27 inWNW (300°)2.3 mphClear
11:20 PM44.6 °F41.0 °F87 %30.27 inCalmClear
11:50 PM44.6 °F41.0 °F87 %30.24 inNW (320°)2.3 mphClear
Hourly data recorded from LTAJ, located miles away from Birecik, Turkey







STORIES FROM OUR PARTNERS